Weather History for KDMA - July, 2013

Change the Weather History Date:

Thursday, July 4, 2013

  Actual Average Record
Temperature  
Mean Temperature 92 °F -  
Max Temperature 104 °F 102 °F 114 °F (1989)
Min Temperature 81 °F 73 °F 64 °F (1961)
Cooling Degree Days 28    
Growing Degree Days 42 (Base 50)    
Moisture  
Dew Point 52 °F    
Average Humidity 25    
Maximum Humidity 45    
Minimum Humidity 15    
Precipitation  
Precipitation 0.00 in - - ()
Sea Level Pressure  
Sea Level Pressure 29.72 in    
Wind  
Wind Speed 11 mph (WNW)    
Max Wind Speed 18 mph    
Max Gust Speed 25 mph    
Visibility 10 miles    
Events      
Averages and records for this station are not official NWS values.
T = Trace of Precipitation, MM = Missing Value Source: NWS Daily Summary

Daily Weather History Graph

Daily Weather History Graph

Search for Another Location

Airport or City:

Trip Planner

Search our weather history database for the weather conditions in past years. The results will help you decide how hot, cold, wet, or windy it might be!

Date:

Astronomy

Jul. 04, 2013 Rise Set
Actual Time 5:22 AM MST 7:33 PM MST
Civil Twilight 4:53 AM MST 8:01 PM MST
Nautical Twilight 4:19 AM MST 8:36 PM MST
Astronomical Twilight 3:42 AM MST 9:13 PM MST
Moon 2:36 AM MST (7/4) 4:44 PM MST (7/4)
Length of Visible Light 15h 07m
Length of Day
14h 11m
Waning Crescent, 11% of the Moon is Illuminated
Jul 4
Waning Crescent
Jul 8
New
Jul 15
First Quarter
Jul 22
Full
Jul 29
Last Quarter

Hourly Weather History & Observations

Time (MST) Temp. Heat Index Dew Point Humidity Pressure Visibility Wind Dir Wind Speed Gust Speed Precip Events Conditions
12:58 AM 87.6 °F - 52.2 °F 30% 29.70 in 10.0 mi South 5.8 mph - N/A   Clear
1:58 AM 86.4 °F 85.1 °F 56.8 °F 36% 29.72 in 10.0 mi South 15.0 mph 23.0 mph N/A   Clear
2:58 AM 84.4 °F 83.7 °F 57.4 °F 40% 29.72 in 10.0 mi South 13.8 mph - N/A   Scattered Clouds
3:58 AM 83.7 °F 83.1 °F 57.7 °F 41% 29.72 in 10.0 mi South 9.2 mph - N/A   Mostly Cloudy
4:58 AM 82.4 °F 82.3 °F 58.3 °F 44% 29.75 in 10.0 mi South 10.4 mph - N/A   Clear
5:58 AM 81.9 °F 81.9 °F 58.3 °F 45% 29.75 in 10.0 mi SSE 9.2 mph - N/A   Clear
6:58 AM 83.7 °F 83.1 °F 57.9 °F 41% 29.77 in 10.0 mi East 10.4 mph - N/A   Clear
7:58 AM 86.4 °F 85.4 °F 57.7 °F 38% 29.78 in 10.0 mi Variable 4.6 mph - N/A   Clear
8:58 AM 88.9 °F 87.5 °F 57.0 °F 34% 29.78 in 10.0 mi SSW 6.9 mph - N/A   Clear
9:58 AM 91.4 °F 89.6 °F 55.8 °F 30% 29.76 in 10.0 mi NNE 6.9 mph - N/A   Clear
10:58 AM 93.9 °F 91.4 °F 53.6 °F 25% 29.75 in 10.0 mi WSW 3.5 mph - N/A   Clear
11:58 AM 95.9 °F 93.6 °F 53.4 °F 24% 29.73 in 10.0 mi Variable 3.5 mph - N/A   Clear
12:58 PM 98.2 °F - 51.1 °F 20% 29.70 in 10.0 mi NW 16.1 mph 21.9 mph N/A   Partly Cloudy
1:58 PM 100.6 °F - 50.5 °F 19% 29.68 in 10.0 mi NNW 12.7 mph - N/A   Clear
2:09 PM 100.4 °F - 50.0 °F 18% 29.83 in 10.0 mi NW 13.8 mph - N/A   Clear
2:58 PM 101.7 °F - 50.0 °F 18% 29.65 in 10.0 mi WNW 5.8 mph 18.4 mph N/A   Clear
3:36 PM 102.2 °F - 50.0 °F 17% 29.79 in 10.0 mi West 17.3 mph - N/A   Clear
3:51 PM 102.2 °F - 50.0 °F 17% 29.78 in 10.0 mi West 15.0 mph 20.7 mph N/A   Clear
3:58 PM 102.7 °F - 49.1 °F 16% 29.62 in 10.0 mi NNW 18.4 mph 25.3 mph N/A   Clear
3:59 PM 102.2 °F - 50.0 °F 17% 29.78 in 10.0 mi NNW 18.4 mph 25.3 mph N/A   Clear
4:31 PM 102.2 °F - 48.2 °F 16% 29.77 in 10.0 mi WNW 15.0 mph 21.9 mph N/A   Clear
4:35 PM 104.0 °F - 48.2 °F 15% 29.77 in 10.0 mi NNW 17.3 mph 21.9 mph N/A   Clear
4:36 PM 104.0 °F - 48.2 °F 15% 29.77 in 10.0 mi NNW 15.0 mph 21.9 mph N/A   Clear
4:40 PM 102.2 °F - 48.2 °F 16% 29.77 in 10.0 mi WNW 12.7 mph 21.9 mph N/A   Clear
4:41 PM 102.2 °F - 48.2 °F 16% 29.77 in 10.0 mi West 12.7 mph 21.9 mph N/A   Clear
4:58 PM 102.4 °F - 48.6 °F 16% 29.61 in 10.0 mi NW 17.3 mph 21.9 mph N/A   Clear
5:51 PM 102.2 °F - 48.2 °F 16% 29.76 in 10.0 mi WNW 13.8 mph - N/A   Clear
5:58 PM 102.6 °F - 48.9 °F 16% 29.60 in 10.0 mi NW 13.8 mph - N/A   Clear
5:59 PM 102.2 °F - 48.2 °F 16% 29.76 in 10.0 mi NW 13.8 mph - N/A   Clear
6:58 PM 100.4 °F - 50.4 °F 19% 29.61 in 10.0 mi NW 8.1 mph - N/A   Clear
7:58 PM 98.1 °F - 51.3 °F 21% 29.63 in 10.0 mi NW 8.1 mph - N/A   Clear
8:58 PM 96.6 °F - 50.0 °F 21% 29.65 in 10.0 mi West 10.4 mph - N/A   Clear
9:58 PM 94.5 °F 92.1 °F 53.6 °F 25% 29.70 in 10.0 mi West 11.5 mph - N/A   Clear
10:58 PM 89.8 °F 87.9 °F 55.0 °F 31% 29.72 in 10.0 mi SE 11.5 mph - N/A   Scattered Clouds
11:58 PM 88.9 °F 86.9 °F 54.9 °F 31% 29.72 in 10.0 mi ESE 10.4 mph - N/A   Clear